Шарапово

Россия / Московская область     55°11′10″N   37°15′19″E
темп.,
°C
ветер,
м/с
пор.,
м/с
влажн.,
%
обл.,
%
осадки,
мм/ч
давл.,
гПа
погр.,
м
14 июня, пн
пн1400:00+14ю22955 0.0 101018
03:00+13ю129688 0.0 101113
06:00+15ю13915 0.0 101293
09:00+21ююз226744 0.0 1013638
12:00+23зюз236312 0.5 10141361
15:00+26зюз124696 0.8 10132087
18:00+22ююв117699 0.2 101470
21:00+18сз118844 0.9 101411
15 июня, вт
вт1500:00+17з118985 0.0 101511
03:00+15з119340 0.0 101411
06:00+17з119135 0.0 101448
09:00+23зсз12665 0.1 1014529
12:00+25ююз016282 0.7 10121267
15:00+24юз227272 3.3 1011651
18:00+23с12837 2.3 1010160
21:00+18сз118896 3.1 101011
16 июня, ср
ср1600:00+16ссз249690 1.6 101089
03:00+15ссз379617 1.6 1010120
06:00+15сз38940 0.0 1011235
09:00+20ссз4765100 0.0 1012621
12:00+23ссз565510 0.0 10131561
15:00+24ссз56420 0.0 10142280
18:00+21ссз464929 0.0 10161194
21:00+15с2472100 0.0 101869
17 июня, чт
чт1700:00+13с22726 0.0 102019
03:00+11с23815 0.0 102262
06:00+13с24750 0.0 1023125
09:00+19ссв24500 0.0 1024639
12:00+22ссв34390 0.0 10241769
15:00+23ссв34370 0.0 10242004
18:00+23ссв23510 0.0 10241779
21:00+16ссз11710 0.0 102511
18 июня, пт
пт1800:00+14ссз11785 0.0 102610
03:00+13сз11825 0.0 102710
06:00+16сз11770 0.0 102754
09:00+22сз11540 0.0 1027547
12:00+26вюв00423 0.0 10271717
15:00+26ю11415 0.0 10261970
18:00+25з22532 0.0 1025889
21:00+18юз22811 0.0 102619